• Processing (Info)

  • MPEC 2019-J84 : 2019 JM3

    The following Minor Planet Electronic Circular may be linked-to from your own Web pages, but must not otherwise be redistributed electronically.

    A form allowing access to any MPEC is at the bottom of this page.


    Read MPEC 2019-J83 Read MPEC 2019-J85


    M.P.E.C. 2019-J84                                Issued 2019 May 10, 04:15 UT
    
         The Minor Planet Electronic Circulars contain information on unusual
             minor planets and routine data on comets.  They are published
        on behalf of Division F of the International Astronomical Union by the
              Minor Planet Center, Smithsonian Astrophysical Observatory,
                              Cambridge, MA 02138, U.S.A.
    
                 Prepared using the Tamkin Foundation Computer Network
    
                                  MPC@CFA.HARVARD.EDU
                URL https://www.minorplanetcenter.net/    ISSN 1523-6714
    
                                       2019 JM3
    
    Observations:
         K19J03M* C2019 05 08.34861 15 13 07.76 +20 57 52.4          20.6 GVEJ084G96
         K19J03M  C2019 05 08.35372 15 13 02.70 +20 56 39.6          20.4 GVEJ084G96
         K19J03M  C2019 05 08.35885 15 12 57.61 +20 55 25.6          20.3 GVEJ084G96
         K19J03M  C2019 05 08.42956 15 11 46.86 +20 38 06.9                VEJ084I52
         K19J03M  C2019 05 08.43053 15 11 45.87 +20 37 53.4          20.0 GVEJ084I52
         K19J03M  C2019 05 08.43151 15 11 44.88 +20 37 38.3          20.5 GVEJ084I52
         K19J03M  C2019 05 08.45177 15 11 24.52 +20 32 34.5          19.9 GVEJ084I52
         K19J03M  C2019 05 08.45274 15 11 23.57 +20 32 19.9          19.7 GVEJ084I52
         K19J03M  C2019 05 08.45372 15 11 22.57 +20 32 05.2          20.6 GVEJ084I52
         K19J03M  C2019 05 08.45469 15 11 21.63 +20 31 50.4          20.4 GVEJ084I52
         K19J03M  C2019 05 09.33322 14 55 07.75 +16 11 01.7          19.6 GVEJ084G96
         K19J03M  C2019 05 09.34456 14 54 52.42 +16 06 58.9          19.4 GVEJ084G96
         K19J03M  C2019 05 09.35023 14 54 44.73 +16 04 57.4          19.6 GVEJ084G96
         K19J03M  C2019 05 09.35180 14 54 42.62 +16 04 23.5          19.5 GVEJ084I52
         K19J03M  C2019 05 09.35415 14 54 39.43 +16 03 32.8          19.6 GVEJ084I52
         K19J03M  C2019 05 09.35651 14 54 36.22 +16 02 41.9          19.7 GVEJ084I52
         K19J03M  C2019 05 09.35886 14 54 33.03 +16 01 51.3          19.5 GVEJ084I52
         K19J03M KC2019 05 09.86973 14 42 39.98 +12 36 30.6          19.6 GVEJ084203
         K19J03M KC2019 05 09.88492 14 42 15.69 +12 29 43.6                VEJ084203
         K19J03M KC2019 05 09.91469 14 41 27.52 +12 16 16.5          19.3 GVEJ084203
         K19J03M KC2019 05 09.92938114 41 02.73 +12 09 34.8          19.5 GVEJ084L01
         K19J03M KC2019 05 09.93052314 41 00.84 +12 09 03.5          19.5 GVEJ084L01
         K19J03M KC2019 05 09.93181314 40 58.73 +12 08 28.1          19.5 GVEJ084L01
         K19J03M KC2019 05 09.93279914 40 57.10 +12 08 01.1          19.4 GVEJ084L01
         K19J03M KC2019 05 10.00000614 39 08.19 +11 36 22.7          19.2 GVEJ084J95
         K19J03M KC2019 05 10.00256614 39 03.90 +11 35 09.7          19.2 GVEJ084J95
         K19J03M KC2019 05 10.00484814 39 00.06 +11 34 04.6          19.1 GVEJ084J95
    
    Observer details:
    203 GiaGa Observatory.  Observers S. Foglia, G. Galli.  Measurer G. Galli.
        0.36-m f/5.76 Schmidt-Cassegrain + CCD.
    G96 Mt. Lemmon Survey.  Observers G. J. Leonard, D. Rankin.  Measurers
        B. M. Africano, E. J. Christensen, G. A. Farneth, D. C. Fuls, A. R. Gibbs,
        A. D. Grauer, H. Groeller, R. A. Kowalski, S. M. Larson, G. J. Leonard,
        T. A. Pruyne, D. Rankin, R. L. Seaman, F. C. Shelly.  1.5-m reflector +
        10K CCD.
    I52 Steward Observatory, Mt. Lemmon Station.  Observers B. M. Africano,
        H. Groeller.  Measurers B. M. Africano, E. J. Christensen, G. A. Farneth,
        D. C. Fuls, A. R. Gibbs, A. D. Grauer, H. Groeller, R. A. Kowalski,
        S. M. Larson, G. J. Leonard, T. A. Pruyne, D. Rankin, R. L. Seaman,
        F. C. Shelly.  1.0-m reflector + CCD.
    J95 Great Shefford.  Observer P. Birtwhistle.  0.41-m f/6.3
        Schmidt-Cassegrain + CCD.
    L01 Visnjan Observatory, Tican.  Observers K. Korlevic, F. Valentine.
        Measurer K. Korlevic.  1.0-m f/2.9 reflector + CCD.
    
    Orbital elements:
    2019 JM3                                                 Earth MOID = 0.0237 AU
    Epoch 2019 Apr. 27.0 TT = JDT 2458600.5                 MPC
    M 332.63505              (2000.0)            P               Q
    n   0.47231900     Peri.  234.05176     +0.14006310     +0.89862678
    a   1.6329734      Node    49.81508     -0.63831294     +0.40294201
    e   0.4458964      Incl.   32.97044     -0.75692729     -0.17351554
    P   2.09           H   25.1           G   0.15           U   5
    Residuals in seconds of arc
    190508 G96  0.2-  0.2-    190508 I52  0.4+  0.1+    190509 203  0.1+  0.2+
    190508 G96  0.0   0.4+    190509 G96  0.4+  0.4+    190509 203  0.0   0.0
    190508 G96  0.2+  0.2+    190509 G96  0.1+  0.0     190509 L01  0.2+  0.3-
    190508 I52  0.1+  0.8-    190509 G96  0.2-  0.2+    190509 L01  0.1-  0.2-
    190508 I52  0.1-  0.2+    190509 I52  0.0   0.0     190509 L01  0.0   0.1-
    190508 I52  0.2-  0.3-    190509 I52  0.0   0.1-    190509 L01  0.2-  0.1+
    190508 I52  0.3-  0.1+    190509 I52  0.2-  0.2-    190510 J95  0.1+  0.2+
    190508 I52  0.1+  0.1+    190509 I52  0.2-  0.1-    190510 J95  0.1+  0.0
    190508 I52  0.1-  0.2+    190509 203  0.4-  0.0     190510 J95  0.2-  0.1-
    
    Ephemeris:
    2019 JM3                 a,e,i = 1.63, 0.45, 33                  q = 0.9048
    Date    TT    R. A. (2000) Decl.     Delta      r     Elong.  Phase     V
    2019 04 10    16 22 43.8 +34 28 42   0.3875  1.2339   118.4    45.6    25.2
    ...
    2019 04 25    16 17 59.7 +34 13 21   0.2110  1.1363   123.6    47.5    23.8
    ...
    2019 05 03    15 58 28.5 +31 00 45   0.1180  1.0871   129.7    45.5    22.4
    ...
    2019 05 09    15 01 55.0 +18 02 08   0.05201 1.0523   144.8    33.6    20.2
    2019 05 10    14 39 10.4 +11 38 58   0.04252 1.0467   150.2    28.6    19.6
    2019 05 11    14 06 29.6 +01 45 26   0.03446 1.0412   155.2    24.0    19.0
    ...
    2019 05 17    07 27 42.9 -50 56 57   0.05687 1.0096    86.9    89.9    22.1
    ...
    2019 05 25    05 41 23.6 -45 33 04   0.1450  0.9724    69.9   102.1    24.6
    ...
    2019 06 09    05 09 50.5 -41 11 31   0.3111  0.9224    64.1    98.3    25.9
    
    A. U. Tomatic                (C) Copyright 2019 MPC           M.P.E.C. 2019-J84
    

    Read MPEC 2019-J83 Read MPEC 2019-J85


    MPEC number:

    Enter an MPEC number in one of the following forms:

    • 1997-B01 (the full form)
    • J97B01 (the packed version of the full form)
    • B01 (the abbreviated form)